| time (UTC) | temp F | wind direction | speed knots | gust knots | rain 1hr in | rain 24hr in | rain mn in | humidity % | barometer mb |
| 20260506180026 | 54 | 340 | 6.1 | 13.9 | 0.00 | 0.04 | 0.04 | 85 | 1012.6 |
| 20260506174528 | 54 | 355 | 6.1 | 13.0 | 0.00 | 0.04 | 0.04 | 85 | 1012.3 |
| 20260506173047 | 53 | 342 | 5.2 | 12.2 | 0.00 | 0.04 | 0.04 | 86 | 1012.7 |
| 20260506171532 | 53 | 355 | 4.3 | 10.4 | 0.00 | 0.04 | 0.04 | 86 | 1013.4 |
| 20260506170023 | 53 | 38 | 4.3 | 9.6 | 0.00 | 0.04 | 0.04 | 86 | 1012.8 |
| 20260506164522 | 52 | 19 | 5.2 | 10.4 | 0.00 | 0.04 | 0.04 | 86 | 1013.3 |
| 20260506163028 | 52 | 325 | 6.1 | 11.3 | 0.00 | 0.04 | 0.04 | 86 | 1013.2 |
| 20260506161522 | 52 | 19 | 4.3 | 11.3 | 0.00 | 0.04 | 0.04 | 86 | 1013.0 |
| 20260506160022 | 52 | 355 | 5.2 | 12.2 | 0.00 | 0.04 | 0.04 | 86 | 1013.0 |
| 20260506154521 | 52 | 360 | 6.1 | 11.3 | 0.01 | 0.04 | 0.04 | 86 | 1012.7 |
| 20260506153024 | 52 | 19 | 3.5 | 11.3 | 0.04 | 0.04 | 0.04 | 85 | 1012.7 |
| 20260506151520 | 51 | 5 | 6.1 | 13.0 | 0.04 | 0.04 | 0.04 | 85 | 1012.6 |
| 20260506150019 | 51 | 333 | 5.2 | 7.8 | 0.04 | 0.04 | 0.04 | 86 | 1014.1 |
| 20260506144517 | 51 | 355 | 5.2 | 7.8 | 0.03 | 0.03 | 0.03 | 85 | 1014.0 |
| 20260506143023 | 52 | 327 | 5.2 | 10.4 | 0.00 | 0.00 | 0.00 | 85 | 1014.2 |
| 20260506141513 | 52 | 347 | 5.2 | 11.3 | 0.00 | 0.00 | 0.00 | 85 | 1012.8 |
| 20260506140017 | 52 | 350 | 7.8 | 13.0 | 0.00 | 0.00 | 0.00 | 84 | 1012.7 |
| 20260506134508 | 52 | 331 | 7.8 | 13.0 | 0.00 | 0.00 | 0.00 | 84 | 1012.8 |
| 20260506133005 | 52 | 57 | 7.0 | 12.2 | 0.00 | 0.00 | 0.00 | 83 | 1012.3 |
| 20260506131505 | 53 | 336 | 7.0 | 14.8 | 0.00 | 0.00 | 0.00 | 82 | 1011.9 |
| 20260506130121 | 53 | 347 | 7.0 | 12.2 | 0.00 | 0.00 | 0.00 | 81 | 1011.7 |
| 20260506124556 | 53 | 350 | 6.1 | 11.3 | 0.00 | 0.00 | 0.00 | 80 | 1011.3 |
| 20260506123055 | 54 | 336 | 7.0 | 13.0 | 0.00 | 0.00 | 0.00 | 80 | 1011.3 |
| 20260506121553 | 54 | 15 | 6.1 | 13.0 | 0.00 | 0.00 | 0.00 | 81 | 1011.0 |
| 20260506120050 | 54 | 28 | 6.1 | 10.4 | 0.00 | 0.00 | 0.00 | 80 | 1011.0 |
| 20260506114549 | 55 | 334 | 7.8 | 13.0 | 0.00 | 0.00 | 0.00 | 80 | 1010.8 |
| 20260506113044 | 55 | 321 | 7.0 | 12.2 | 0.00 | 0.00 | 0.00 | 80 | 1010.6 |
| 20260506111542 | 55 | 331 | 5.2 | 10.4 | 0.00 | 0.00 | 0.00 | 80 | 1010.4 |
| 20260506110044 | 55 | 327 | 7.0 | 12.2 | 0.00 | 0.00 | 0.00 | 80 | 1009.8 |
| 20260506104604 | 56 | 336 | 5.2 | 11.3 | 0.00 | 0.00 | 0.00 | 81 | 1009.8 |
| 20260506103040 | 56 | 323 | 7.0 | 10.4 | 0.00 | 0.00 | 0.00 | 80 | 1009.6 |
| 20260506101533 | 56 | 350 | 4.3 | 11.3 | 0.00 | 0.00 | 0.00 | 81 | 1009.2 |
| 20260506100039 | 56 | 347 | 5.2 | 8.7 | 0.00 | 0.00 | 0.00 | 80 | 1008.9 |
| 20260506094533 | 57 | 344 | 5.2 | 10.4 | 0.00 | 0.00 | 0.00 | 81 | 1008.8 |
| 20260506093025 | 57 | 341 | 5.2 | 7.8 | 0.00 | 0.00 | 0.00 | 80 | 1008.6 |
| 20260506091523 | 58 | 348 | 3.5 | 7.8 | 0.00 | 0.00 | 0.00 | 80 | 1008.6 |
| 20260506090020 | 58 | 331 | 6.1 | 9.6 | 0.00 | 0.00 | 0.00 | 81 | 1008.6 |
| 20260506084518 | 58 | 302 | 3.5 | 8.7 | 0.00 | 0.00 | 0.00 | 80 | 1008.5 |
| 20260506083033 | 59 | 342 | 3.5 | 8.7 | 0.00 | 0.00 | 0.00 | 80 | 1008.2 |
| 20260506081513 | 59 | 339 | 5.2 | 10.4 | 0.00 | 0.00 | 0.00 | 80 | 1008.2 |
| 20260506073009 | 60 | 38 | 4.3 | 8.7 | 0.00 | 0.00 | 0.00 | 81 | 1007.8 |
| 20260506071508 | 60 | 5 | 3.5 | 7.8 | 0.00 | 0.00 | 0.00 | 81 | 1008.0 |
| 20260506061502 | 61 | 5 | 3.5 | 7.8 | 0.00 | 0.00 | 0.00 | 81 | 1007.7 |
| 20260506044556 | 64 | 5 | 4.3 | 8.7 | 0.00 | 0.00 | 0.00 | 78 | 1007.5 |
| 20260506043052 | 65 | 18 | 5.2 | 9.6 | 0.00 | 0.00 | 0.00 | 78 | 1007.5 |
| 20260506041545 | 66 | 339 | 7.0 | 11.3 | 0.00 | 0.00 | 0.00 | 77 | 1007.6 |
| 20260506040047 | 66 | 332 | 4.3 | 11.3 | 0.00 | 0.00 | 0.00 | 76 | 1007.5 |
| 20260506034536 | 66 | 349 | 7.0 | 12.2 | 0.00 | 0.00 | 0.00 | 75 | 1007.2 |
| 20260506033032 | 67 | 340 | 6.1 | 10.4 | 0.00 | 0.00 | 0.00 | 74 | 1006.9 |
| 20260506031530 | 67 | 24 | 4.3 | 9.6 | 0.00 | 0.00 | 0.00 | 74 | 1006.4 |
| 20260506030028 | 68 | 350 | 5.2 | 11.3 | 0.00 | 0.00 | 0.00 | 73 | 1006.0 |
| 20260506024535 | 69 | 348 | 5.2 | 10.4 | 0.00 | 0.00 | 0.00 | 73 | 1005.9 |
| 20260506023024 | 70 | 343 | 6.1 | 12.2 | 0.00 | 0.00 | 0.00 | 72 | 1005.6 |
| 20260506021540 | 71 | 15 | 6.1 | 10.4 | 0.00 | 0.00 | 0.00 | 72 | 1005.4 |
| 20260506020021 | 72 | 332 | 5.2 | 10.4 | 0.00 | 0.00 | 0.00 | 71 | 1005.0 |
| 20260506014523 | 73 | 313 | 4.3 | 11.3 | 0.00 | 0.00 | 0.00 | 70 | 1004.6 |
| 20260506013017 | 73 | 340 | 3.5 | 7.8 | 0.00 | 0.00 | 0.00 | 70 | 1004.1 |
| 20260506011524 | 74 | 348 | 3.5 | 9.6 | 0.00 | 0.00 | 0.00 | 68 | 1003.9 |
| 20260506010016 | 74 | 322 | 4.3 | 10.4 | 0.00 | 0.00 | 0.00 | 66 | 1003.7 |
| 20260506004515 | 75 | 310 | 5.2 | 8.7 | 0.00 | 0.00 | 0.00 | 65 | 1003.5 |
| 20260506003015 | 75 | 360 | 2.6 | 8.7 | 0.00 | 0.00 | 0.00 | 64 | 1003.2 |
| 20260506001515 | 76 | 5 | 6.1 | 12.2 | 0.00 | 0.00 | 0.00 | 64 | 1003.3 |
| 20260506000014 | 77 | 355 | 5.2 | 13.0 | 0.00 | 0.00 | 0.00 | 63 | 1003.3 |
| 20260505234515 | 78 | 344 | 7.0 | 12.2 | 0.00 | 0.00 | 0.00 | 62 | 1003.0 |
| 20260505233012 | 80 | 355 | 7.0 | 13.0 | 0.00 | 0.00 | 0.00 | 61 | 1002.6 |
| 20260505231522 | 82 | 342 | 8.7 | 13.9 | 0.00 | 0.00 | 0.00 | 55 | 1002.4 |
| 20260505230012 | 84 | 333 | 7.0 | 13.0 | 0.00 | 0.00 | 0.00 | 50 | 1002.2 |
| 20260505224519 | 87 | 324 | 2.6 | 6.1 | 0.00 | 0.00 | 0.00 | 52 | 1002.0 |
| 20260505223014 | 87 | 299 | 3.5 | 6.1 | 0.00 | 0.00 | 0.00 | 50 | 1001.9 |
| 20260505221511 | 87 | 336 | 3.5 | 6.1 | 0.00 | 0.00 | 0.00 | 51 | 1001.9 |
| 20260505220010 | 88 | 291 | 2.6 | 5.2 | 0.00 | 0.00 | 0.00 | 51 | 1001.7 |
| 20260505214511 | 88 | 242 | 3.5 | 6.1 | 0.00 | 0.00 | 0.00 | 48 | 1001.9 |
| 20260505213007 | 89 | 276 | 2.6 | 7.0 | 0.00 | 0.00 | 0.00 | 50 | 1001.9 |
| 20260505211518 | 89 | 233 | 2.6 | 6.1 | 0.00 | 0.00 | 0.00 | 51 | 1002.0 |
| 20260505210006 | 88 | 236 | 4.3 | 11.3 | 0.00 | 0.00 | 0.00 | 50 | 1002.4 |
| 20260505204503 | 88 | 173 | 4.3 | 9.6 | 0.00 | 0.00 | 0.00 | 52 | 1002.6 |
| 20260505203001 | 87 | 196 | 3.5 | 9.6 | 0.00 | 0.00 | 0.00 | 55 | 1002.4 |
| 20260505201600 | 87 | 240 | 7.8 | 13.9 | 0.00 | 0.00 | 0.00 | 53 | 1002.9 |
| 20260505200058 | 87 | 146 | 5.2 | 11.3 | 0.00 | 0.00 | 0.00 | 59 | 1002.8 |
| 20260505194554 | 86 | 254 | 6.1 | 12.2 | 0.00 | 0.00 | 0.00 | 62 | 1003.0 |
| 20260505193052 | 85 | 200 | 7.8 | 12.2 | 0.00 | 0.00 | 0.00 | 63 | 1003.0 |
| 20260505191554 | 84 | 223 | 7.0 | 13.9 | 0.00 | 0.00 | 0.00 | 64 | 1003.0 |
| 20260505190047 | 83 | 205 | 7.8 | 13.9 | 0.00 | 0.00 | 0.00 | 65 | 1003.1 |
| 20260505184550 | 83 | 215 | 8.7 | 14.8 | 0.00 | 0.00 | 0.00 | 66 | 1003.4 |
| 20260505183047 | 82 | 217 | 8.7 | 13.9 | 0.00 | 0.00 | 0.00 | 69 | 1003.5 |
| 20260505181540 | 82 | 223 | 7.8 | 14.8 | 0.00 | 0.00 | 0.00 | 71 | 1003.6 |